Hourly Data Report for October 25, 2014

All times are specified in Local Standard Time (LST). Add 1 hour to adjust for Daylight Saving Time where and when it is observed.

Metadata including Station Name, Province, Latitude, Longitude, Elevation, Climate ID, WMO ID, TC ID
MONTREAL MIRABEL INTL A
QUEBEC
Latitude: 45°40'50.000" N Longitude: 74°02'19.000" W Elevation: 82.30 m
Climate ID: 7034900 WMO ID: TC ID: YMX
Hourly Data Report for October 24, 2014
Temp Definition
°C

Dew Point Temp Definition
°C

Rel Hum Definition
%

Wind Dir Definition
10's deg
Wind Spd Definition
km/h

Visibility Definition
km

Stn Press Definition
kPa

Hmdx Definition

Wind Chill Definition

Weather Definition

00:00 Legend Double Dagger 7.0 6.4 96 35 7 24.1 100.41 LegendNANA
01:00 Legend Double Dagger 7.2 6.0 92 1 4 32.2 100.38 Cloudy
02:00 Legend Double Dagger 6.9 6.0 94 31 6 40.2 100.35 LegendNANA
03:00 Legend Double Dagger 7.2 6.0 92 7 5 40.2 100.34 LegendNANA
04:00 Legend Double Dagger 7.0 6.3 95 26 4 40.2 100.36 Cloudy
05:00 Legend Double Dagger 7.1 6.5 96 29 5 40.2 100.36 LegendNANA
06:00 Legend Double Dagger 7.2 6.8 97 27 8 9.7 100.34 Rain Showers,Fog
07:00 Legend Double Dagger 7.4 6.7 95 28 8 32.2 100.32 Rain Showers
08:00 Legend Double Dagger 8.4 6.7 89 28 4 40.2 100.31 LegendNANA
09:00 Legend Double Dagger 10.6 6.2 74 31 7 40.2 100.30 LegendNANA
10:00 Legend Double Dagger 11.8 3.4 56 4 10 40.2 100.27 Mostly Cloudy
11:00 Legend Double Dagger 12.1 3.9 57 5 7 72.4 100.26 LegendNANA
12:00 Legend Double Dagger 12.4 2.9 52 8 13 72.4 100.21 LegendNANA
13:00 Legend Double Dagger 13.6 3.4 50 13 3 72.4 100.15 Mostly Cloudy
14:00 Legend Double Dagger 13.6 3.7 51 20 12 72.4 100.06 LegendNANA
15:00 Legend Double Dagger 12.8 4.8 58 17 10 72.4 100.08 LegendNANA
16:00 Legend Double Dagger 11.3 4.3 62 18 13 72.4 100.05 Mostly Cloudy
17:00 Legend Double Dagger 10.7 4.4 65 22 8 40.2 100.04 LegendNANA
18:00 Legend Double Dagger 10.3 4.3 66 23 7 40.2 100.05 LegendNANA
19:00 Legend Double Dagger 9.7 4.5 70 22 8 40.2 100.04 Mainly Clear
20:00 Legend Double Dagger 8.1 4.5 78 22 4 40.2 100.02 LegendNANA
21:00 Legend Double Dagger 8.1 4.5 78 26 7 40.2 99.98 LegendNANA
22:00 Legend Double Dagger 7.8 4.8 81 27 4 40.2 99.91 Mainly Clear
23:00 Legend Double Dagger 7.0 4.3 83 26 8 40.2 99.88 LegendNANA

Notes on Data Quality.

Legend
  • E = Estimated
  • M = Missing
  • NA = Not Available
  • ‡ = Partner data that is not subject to review by the National Climate Archives